OSCAR 7 (AO-7) 1 07530U 74089B 26236.27892306 -.00000028 00000+0 11372-3 0 9996 2 07530 101.9921 250.2374 0012255 3.2594 7.1380 12.53699200369050 PHASE 3B (AO-10) 1 14129U 83058B 26234.88657270 -.00000310 00000+0 00000+0 0 9994 2 14129 25.9661 208.6277 5988982 133.9728 294.5118 2.05871966296867 UOSAT 2 (UO-11) 1 14781U 84021B 26236.14335218 .00001186 00000+0 12582-3 0 9998 2 14781 97.8128 200.9904 0006736 330.5212 29.5626 14.90940829267258 LUSAT (LO-19) 1 20442U 90005G 26235.50831170 .00000072 00000+0 42285-4 0 9992 2 20442 98.8842 259.1639 0011736 14.2970 345.8543 14.34139286912048 EYESAT A (AO-27) 1 22825U 93061C 26236.17522057 .00000056 00000+0 38253-4 0 9991 2 22825 98.6828 303.5458 0007259 259.2627 100.7738 14.30956996716727 ITAMSAT (IO-26) 1 22826U 93061D 26236.41394138 .00000059 00000+0 39275-4 0 9994 2 22826 98.6776 303.7089 0007893 239.3247 120.7158 14.31385534717075 RADIO ROSTO (RS15) 1 23439U 94085A 26236.49524844 -.00000056 00000+0 -37769-3 0 9993 2 23439 64.8151 192.7397 0158455 351.4739 8.3500 11.27584118303602 JAS-2 (FO-29) 1 24278U 96046B 26234.99810505 -.00000005 00000+0 34201-4 0 9991 2 24278 98.5190 74.7120 0348805 283.1085 73.1351 13.53276958482208 TECHSAT 1B (GO-32) 1 25397U 98043D 26236.41053792 .00000052 00000+0 42525-4 0 9998 2 25397 99.0128 230.9077 0001982 51.4157 308.7199 14.24439584461044 ISS (ZARYA) 1 25544U 98067A 26236.43525465 .00008197 00000+0 15348-3 0 9991 2 25544 51.6332 322.3014 0007699 78.6726 281.5127 15.49604681582335 PCSAT (NO-44) 1 26931U 01043C 26235.97866662 .00000080 00000+0 60923-4 0 9998 2 26931 67.0496 68.9288 0005649 270.3796 89.6659 14.31977234300157 SAUDISAT 1C (SO-50) 1 27607U 02058C 26236.52869240 .00000793 00000+0 11089-3 0 9992 2 27607 64.5512 277.5176 0073098 249.9416 109.3811 14.83174583274598 CUTE-1 (CO-55) 1 27844U 03031E 26236.45778141 .00000230 00000+0 11830-3 0 9998 2 27844 98.6766 244.1663 0009392 355.0394 5.0690 14.24371208201394 CUBESAT XI-IV (CO-57) 1 27848U 03031J 26236.48062758 .00000185 00000+0 10026-3 0 9990 2 27848 98.6796 243.8465 0009714 13.6367 346.5072 14.23651376201092 MOZHAETS 4 (RS22) 1 27939U 03042A 26236.52904100 .00000489 00000+0 83322-4 0 9991 2 27939 98.3489 62.8337 0012407 55.2432 28.7136 14.73570794225617 CUBESAT XI-V 1 28895U 05043F 26236.41305082 .00001042 00000+0 17123-3 0 9999 2 28895 98.3069 33.5080 0013756 354.6807 5.4251 14.72784518111796 CUTE-1.7+APD II (CO-65) 1 32785U 08021C 26236.51506530 .00004326 00000+0 27016-3 0 9993 2 32785 97.8336 219.4079 0009541 146.7395 213.4435 15.09998275995504 SEEDS II (CO-66) 1 32791U 08021J 26236.43913328 .00017414 00000+0 51659-3 0 9990 2 32791 97.7553 237.7228 0004761 82.1663 278.0120 15.34881759997753 YUBILEINY (RS30) 1 32953U 08025A 26236.50485984 -.00000054 00000+0 -45830-3 0 9992 2 32953 82.5064 312.9518 0020195 159.7700 200.4184 12.43181807828185 KKS-1 (KISEKI) 1 33499U 09002H 26236.46142497 .00001076 00000+0 13825-3 0 9990 2 33499 98.1156 159.9819 0009288 71.7660 288.4563 14.83269970946314 SWISSCUBE 1 35932U 09051B 26236.17285415 .00000787 00000+0 16472-3 0 9993 2 35932 98.3961 145.2262 0007156 12.4729 347.6647 14.62591548899093 BEESAT-1 1 35933U 09051C 26236.49189624 .00000645 00000+0 13903-3 0 9993 2 35933 98.3887 145.0415 0005932 27.6799 332.4717 14.61812983899160 ITUPSAT1 1 35935U 09051E 26234.69303247 .00000601 00000+0 13375-3 0 9999 2 35935 98.3969 142.3361 0008406 39.9005 320.2812 14.60523807898442 XIWANG-1 (HOPE-1) 1 36122U 09072B 26236.49105076 -.00000481 00000+0 -11435-2 0 9993 2 36122 100.4073 189.2463 0008198 78.4528 281.7505 13.16439028801996 O/OREOS (USA 219) 1 37224U 10062C 26236.49943700 .00001435 00000+0 14028-3 0 9992 2 37224 71.9692 285.5698 0016420 292.4474 67.4957 14.93974307126848 JUGNU 1 37839U 11058B 26236.11864830 .00000388 00000+0 63343-4 0 9996 2 37839 19.9599 255.7144 0018777 106.4384 293.6139 14.13792433768650 SRMSAT 1 37841U 11058D 26236.50781586 .00000372 00000+0 57742-4 0 9997 2 37841 19.9733 5.9324 0011612 235.8522 191.2233 14.11588177767484 STRAND-1 1 39090U 13009E 26236.42372176 .00000207 00000+0 83822-4 0 9990 2 39090 98.3960 54.9959 0009286 34.1336 326.0446 14.37197216706867 ZACUBE-1 (TSHEPISOSAT) 1 39417U 13066B 26236.38738718 .00005230 00000+0 40051-3 0 9996 2 39417 97.8037 199.0507 0041940 24.8253 335.4976 15.01607912690962 GOMX-1 1 39430U 13066Q 26236.47912278 .00001647 00000+0 25242-3 0 9999 2 39430 97.6453 72.6375 0127149 217.5602 141.6673 14.69629151679949 CUBEBUG-2 (LO-74) 1 39440U 13066AA 26236.31198594 .00001972 00000+0 18408-3 0 9997 2 39440 97.8943 185.6159 0057439 159.9326 200.4171 14.94154809687168 FUNCUBE-1 (AO-73) 1 39444U 13066AE 26236.38181510 .00006980 00000+0 42377-3 0 9994 2 39444 97.8340 209.3165 0034724 334.7608 25.1922 15.10334451689959 UWE-3 1 39446U 13066AG 26236.31701641 .00002861 00000+0 24497-3 0 9999 2 39446 97.8759 192.8891 0050468 91.9301 268.7702 14.97413697687775 UNISAT-6 1 40012U 14033C 26236.23529250 .00002947 00000+0 31736-3 0 9999 2 40012 97.7961 27.7979 0044252 202.3185 157.6107 14.88521869656283 DUCHIFAT-1 1 40021U 14033M 26236.45089653 .00338653 00000+0 13322-2 0 9997 2 40021 98.0338 306.1750 0006020 211.1014 148.9899 15.86020598666482 QB50P1 1 40025U 14033R 26235.48502800 .00006735 00000+0 32359-3 0 9992 2 40025 98.0979 251.4010 0008563 7.5646 352.5714 15.19176645663241 LILACSAT-2 1 40908U 15049K 26236.52752041 .00017726 00000+0 27930-3 0 9991 2 40908 97.4599 276.0503 0006580 21.2672 338.8853 15.53603707606353 FOX-1A (AO-85) 1 40967U 15058D 26236.55974464 .00002070 00000+0 18873-3 0 9996 2 40967 64.7743 66.4417 0135931 30.8154 330.0847 14.91319256123765 CAS-2T & KS-1Q 1 41847U 16066G 26236.24823162 .00000429 00000+0 70441-4 0 9994 2 41847 98.3779 311.2051 0340081 283.0877 73.2568 14.44813468514625 RADFXSAT (FOX-1B) 1 43017U 17073E 26236.52006350 .00008440 00000+0 35860-3 0 9993 2 43017 97.4605 102.3409 0149760 92.4666 269.3720 15.13595055475720 DIWATA-2B 1 43678U 18084H 26236.51908689 .00001102 00000+0 92205-4 0 9999 2 43678 98.1208 75.7345 0010475 305.0312 54.9927 15.00671975426469 ES'HAIL 2 1 43700U 18090A 26236.19599237 .00000141 00000+0 00000+0 0 9990 2 43700 0.0154 119.0876 0002448 62.8673 246.8617 1.00271088 28357 FOX-1CLIFF (AO-95) 1 43770U 18099N 26236.40835588 .00010286 00000+0 37843-3 0 9992 2 43770 97.4331 296.4441 0010142 105.7985 254.4374 15.28015877423634 ITASAT 1 43786U 18099AE 26236.11654433 .00005384 00000+0 25398-3 0 9990 2 43786 97.3981 286.2863 0014028 112.9315 247.3402 15.19795667423220 JY1SAT (JO-97) 1 43803U 18099AX 26236.42731812 .00016513 00000+0 47759-3 0 9992 2 43803 97.4077 299.5758 0006075 43.2213 316.9506 15.35676926424091 UWE-4 1 43880U 18111E 26236.53339866 .00036871 00000+0 65113-3 0 9990 2 43880 97.5819 168.2810 0009919 81.4152 278.8223 15.50224981421353 TIANYAN 01 1 44881U 19093C 26236.49945303 .00001399 00000+0 16359-3 0 9991 2 44881 97.7487 307.0511 0012402 217.3492 142.6863 14.86611112361565 RS-44 & BREEZE-KM R/B 1 44909U 19096E 26236.09953498 .00000024 00000+0 54998-4 0 9991 2 44909 82.5212 294.5855 0217134 345.8886 13.6208 12.79748911311033 SALSAT 1 46495U 20068K 26235.95590157 .00006873 00000+0 23443-3 0 9995 2 46495 97.8879 243.2009 0011187 69.3904 290.8534 15.30648655325720 XW-3 (CAS-9) 1 50466U 21131B 26236.50057575 .00000485 00000+0 16321-3 0 9994 2 50466 98.4976 328.5199 0002912 247.1162 112.9720 14.41410651244953 GREENCUBE (IO-117) 1 53109U 22080E 26236.04175807 -.00000003 00000+0 00000+0 0 9993 2 53109 70.1271 274.6485 0009202 274.7300 85.2308 6.42583690 96420 UMKA 1 (RS40S) 1 57172U 23091G 26236.50593859 .00005393 00000+0 24260-3 0 9996 2 57172 97.4998 294.9505 0011104 236.2515 123.7663 15.21480890174395 CUBESX-HSE 3 (RS42S) 1 57178U 23091N 26236.49447757 .00011775 00000+0 37450-3 0 9991 2 57178 97.5042 302.9999 0009723 200.3652 159.7204 15.32718851174884 MONITOR-3 (RS58S) 1 57180U 23091Q 26236.48055271 .00009081 00000+0 32438-3 0 9997 2 57180 97.5033 300.4656 0010439 210.5457 149.5176 15.29024324174721 MONITOR-4 (RS57S) 1 57182U 23091S 26236.52113339 .00009643 00000+0 34328-3 0 9998 2 57182 97.5027 300.4814 0010419 210.7710 149.2920 15.29117449174730 MONITOR-2 (RS39S) 1 57184U 23091U 26236.48424529 .00003739 00000+0 17951-3 0 9994 2 57184 97.5020 294.3287 0009735 228.7938 131.2458 15.19445002174320 SVYATOBOR 1 (RS60S) 1 57187U 23091X 26236.46626015 .00008207 00000+0 30642-3 0 9996 2 57187 97.5040 300.6892 0008524 201.4928 158.5954 15.27616580174738 VIZARD-METEO (RS38S) 1 57189U 23091Z 26236.50515294 .00015856 00000+0 42593-3 0 9995 2 57189 97.5044 307.4389 0007209 173.0917 187.0428 15.37984722175181 POLYTECH-UNIVERSE 3 (R*) 1 57191U 23091AB 26236.50190181 .00004242 00000+0 20170-3 0 9996 2 57191 97.4995 293.8509 0013661 248.7625 111.2151 15.19661593174320 UTMN 2 (RS27S) 1 57203U 23091AP 26236.47565529 .00012345 00000+0 38287-3 0 9999 2 57203 97.5038 304.6966 0007595 183.1446 176.9750 15.33529989175000 KUZGTU 1 (RS47S) 1 57217U 23091AV 26236.48380191 .00010931 00000+0 36441-3 0 9994 2 57217 97.5014 301.7066 0009842 205.3777 154.6981 15.31224750174823 SONATE-2 1 59112U 24043Q 26236.33185494 .00045324 00000+0 48202-3 0 9993 2 59112 97.5589 31.2118 0004727 309.8563 50.2279 15.63896000138525 MESAT1 1 60209U 24125G 26236.04127894 .00084434 00000+0 65155-3 0 9992 2 60209 97.2180 95.4411 0005782 329.9425 30.1506 15.71668037120198 GRBBETA 1 60237U 24128C 26236.30445999 .00003373 00000+0 23571-3 0 9993 2 60237 61.9919 337.1991 0031036 149.5735 210.7168 15.07061181116536 OOV-CUBE (TUBSAT-30) 1 60240U 24128F 26236.31886506 .00002098 00000+0 16861-3 0 9998 2 60240 61.9970 347.9548 0035341 149.3887 210.9277 15.03026099116351 COLIBRI-S (RS67S) 1 61746U 24199M 26236.53415965 .00022490 00000+0 39584-3 0 9994 2 61746 97.2873 111.1055 0009161 43.9424 316.2555 15.50422670147998 HORS 3 (RS81S) 1 61753U 24199U 26236.52041691 .00044884 00000+0 55924-3 0 9999 2 61753 97.2859 113.9190 0006800 48.7217 311.4624 15.59768304148193 HORS 4 (RS82S) 1 61754U 24199V 26236.48787463 .00065206 00000+0 61985-3 0 9994 2 61754 97.2792 115.6265 0005328 49.1515 311.0206 15.66644424148312 SIT-2086 1 61764U 24199AF 26236.51706272 .00043593 00000+0 58312-3 0 9993 2 61764 97.2815 114.1544 0006505 32.8509 327.3150 15.57887484145054 ALTAIR (RS65S) 1 61779U 24199AW 26236.50950899 .00010670 00000+0 28502-3 0 9992 2 61779 97.2930 105.4300 0014047 64.3357 295.9337 15.38173810147613 ASRTU-1 (AO-123) 1 61781U 24199AY 26236.56307449 .00007256 00000+0 20481-3 0 9992 2 61781 97.2899 104.6238 0015236 66.5459 293.7386 15.36563616144420 SAMSAT-IONOSPHERE (RS7*) 1 61784U 24199BB 26236.53453583 .00057135 00000+0 60294-3 0 9990 2 61784 97.2817 114.2987 0008018 45.1514 315.0395 15.64016355148220 RTU MIREA 1 (RS51S) 1 61785U 24199BC 26236.49515958 .00082853 00000+0 69707-3 0 9994 2 61785 97.2795 115.5359 0007021 46.9585 313.2265 15.69579267145159 LASARSAT 1 62391U 24247Q 26236.48817848 .00036354 00000+0 62501-3 0 9994 2 62391 44.9711 237.1959 0007877 48.7761 311.3808 15.50520667 93909 CROCUBE 1 62394U 24247T 26235.35906192 .00041109 00000+0 64528-3 0 9998 2 62394 44.9686 239.6311 0008123 50.5412 309.6198 15.53009612 93773 TEVEL2-4 1 63213U 25052D 26236.20603729 .00018338 00000+0 51114-3 0 9994 2 63213 97.3801 132.7857 0001951 159.6685 200.4637 15.36824895 80555 TEVEL2-5 1 63214U 25052E 26236.16986705 .00017697 00000+0 49675-3 0 9994 2 63214 97.3801 132.6760 0001713 160.7046 199.4263 15.36613462 80545 TEVEL2-6 1 63215U 25052F 26236.18375104 .00018277 00000+0 51349-3 0 9998 2 63215 97.3803 132.6748 0001638 159.1120 201.0192 15.36580109 80547 TEVEL2-1 1 63217U 25052H 26236.49878450 .00016826 00000+0 48221-3 0 9999 2 63217 97.3779 132.5298 0001208 182.9959 177.1278 15.35975135 80574 TEVEL2-3 1 63218U 25052J 26236.16486433 .00017159 00000+0 49075-3 0 9998 2 63218 97.3779 132.2270 0001025 169.0363 191.0903 15.36036290 80520 TEVEL2-2 1 63219U 25052K 26236.17285483 .00017115 00000+0 49041-3 0 9997 2 63219 97.3778 132.2066 0001156 185.4014 174.7218 15.35977410 80527 OTP-2 1 63235U 25052AB 26236.49399536 .00005624 00000+0 22962-3 0 9990 2 63235 97.3770 127.9099 0004304 289.6740 70.4033 15.24791418 80274 TEVEL2-9 1 63237U 25052AD 26236.17658937 .00015717 00000+0 48233-3 0 9993 2 63237 97.3841 131.4296 0003742 254.2042 105.8788 15.33824437 80449 TEVEL2-7 1 63238U 25052AE 26235.51388802 .00015154 00000+0 47057-3 0 9990 2 63238 97.3840 130.6525 0003640 257.9226 102.1608 15.33456949 80334 TEVEL2-8 1 63239U 25052AF 26236.50155594 .00015011 00000+0 46589-3 0 9992 2 63239 97.3842 131.6142 0003732 255.1502 104.9327 15.33475254 80486 INNOSAT 16 (RS92S7) 1 64878U 25155C 26236.53487604 .00005490 00000+0 21547-3 0 9996 2 64878 97.4630 203.5040 0008737 312.9036 47.1468 15.26113443 91096 GEOSCAN 6 (RS92S6) 1 64879U 25155D 26236.49223316 .00009745 00000+0 32429-3 0 9998 2 64879 97.4618 205.3941 0005614 305.1374 54.9341 15.31344715 91217 GEOSCAN 1 (RS92S1) 1 64880U 25155E 26236.53090413 .00010492 00000+0 34142-3 0 9990 2 64880 97.4613 205.6457 0005461 305.2785 54.7945 15.32046359 91230 239ALFEROV (RS61S) 1 64881U 25155F 26236.52384742 .00014456 00000+0 43225-3 0 9997 2 64881 97.4610 206.4509 0004868 304.8989 55.1796 15.34666043 91280 GEOSCAN 2 (RS92S2) 1 64890U 25155Q 26236.51310367 .00010407 00000+0 33609-3 0 9995 2 64890 97.4613 205.8064 0004591 287.1324 72.9415 15.32295214 91248 GEOSCAN 5 (RS92S5) 1 64891U 25155R 26236.49936645 .00013485 00000+0 39977-3 0 9999 2 64891 97.4603 206.5884 0003951 316.0785 44.0143 15.34957519 91296 GEOSCAN 4 (RS92S4) 1 64892U 25155S 26236.47594586 .00014288 00000+0 42088-3 0 9991 2 64892 97.4608 206.6353 0003778 317.1418 42.9530 15.35145607 91291 GEOSCAN 3 (RS92S3) 1 64893U 25155T 26236.50900644 .00017388 00000+0 47329-3 0 9999 2 64893 97.4594 207.3172 0003534 317.0558 43.0410 15.37573317 91347 INNOSAT 3 (RS92S0) 1 64894U 25155U 26236.52047786 .00043285 00000+0 80487-3 0 9998 2 64894 97.4528 209.9249 0001230 351.6949 8.4281 15.48769991 91525 KNACKSAT-2 1 67683U 98067XZ 26236.24854796 .00055032 00000+0 52166-3 0 9991 2 67683 51.6275 310.5364 0007305 79.2155 280.9663 15.66345021 30925 MARINA 1 69920U 26156BD 26235.22048699 .00001984 00000+0 20071-3 0 9998 2 69920 97.7474 134.9093 0007769 11.3753 348.7640 14.92085499 6991